• In Uzbekistan
  • List of Countries
  • For 7 days
  • Water Temperature
  • Weather Map
  • Weather Widgets
  • user-avatar
    Login

    Hourly Weather Córdoba

    Today, 21 September, Saturday

    Time Temperature Precipitation Wind Pressure Humidity
    00:00 +12°C° 0 mm 3 mps 729 mmHg 20%
    01:00 +11°C° 0 mm 3 mps 728 mmHg 20%
    02:00 +11°C° 0 mm 3 mps 728 mmHg 20%
    03:00 +10°C° 0 mm 2 mps 728 mmHg 21%
    04:00 +10°C° 0 mm 2 mps 728 mmHg 21%
    05:00 +10°C° 0 mm 2 mps 728 mmHg 22%
    06:00 +12°C° 0 mm 2 mps 728 mmHg 21%
    07:00 +14°C° 0 mm 2 mps 729 mmHg 20%
    08:00 +16°C° 0 mm 2 mps 729 mmHg 19%
    09:00 +18°C° 0 mm 3 mps 729 mmHg 16%
    10:00 +21°C° 0 mm 3 mps 729 mmHg 13%
    11:00 +23°C° 0 mm 4 mps 729 mmHg 10%
    12:00 +25°C° 0 mm 4 mps 729 mmHg 10%
    13:00 +26°C° 0 mm 4 mps 728 mmHg 10%
    14:00 +27°C° 0 mm 4 mps 728 mmHg 11%
    15:00 +26°C° 0 mm 4 mps 727 mmHg 12%
    16:00 +26°C° 0 mm 4 mps 727 mmHg 14%
    17:00 +25°C° 0 mm 5 mps 727 mmHg 15%
    18:00 +22°C° 0 mm 4 mps 727 mmHg 18%
    19:00 +19°C° 0 mm 3 mps 728 mmHg 21%
    20:00 +17°C° 0 mm 3 mps 728 mmHg 24%
    21:00 +16°C° 0 mm 3 mps 728 mmHg 26%
    22:00 +14°C° 0 mm 3 mps 729 mmHg 27%
    23:00 +14°C° 0 mm 3 mps 729 mmHg 29%

    Tomorrow, 22 September, Sunday

    Time Temperature Precipitation Wind Pressure Humidity
    00:00 +14°C° 0 mm 2 mps 729 mmHg 31%
    01:00 +14°C° 0 mm 2 mps 729 mmHg 32%
    02:00 +14°C° 0 mm 2 mps 729 mmHg 34%
    03:00 +13°C° 0 mm 2 mps 729 mmHg 35%
    04:00 +13°C° 0 mm 2 mps 730 mmHg 37%
    05:00 +12°C° 0 mm 2 mps 730 mmHg 39%
    06:00 +14°C° 0 mm 2 mps 731 mmHg 38%
    07:00 +14°C° 0 mm 3 mps 731 mmHg 36%
    08:00 +17°C° 0 mm 4 mps 731 mmHg 35%
    09:00 +19°C° 0 mm 4 mps 732 mmHg 31%
    10:00 +20°C° 0 mm 5 mps 732 mmHg 27%
    11:00 +22°C° 0 mm 6 mps 732 mmHg 24%
    12:00 +23°C° 0 mm 7 mps 731 mmHg 23%
    13:00 +24°C° 0 mm 7 mps 730 mmHg 22%
    14:00 +24°C° 0 mm 7 mps 730 mmHg 21%
    15:00 +24°C° 0 mm 7 mps 729 mmHg 21%
    16:00 +23°C° 0 mm 7 mps 729 mmHg 21%
    17:00 +23°C° 0 mm 6 mps 729 mmHg 21%
    18:00 +21°C° 0 mm 5 mps 729 mmHg 26%
    19:00 +17°C° 0 mm 5 mps 729 mmHg 31%
    20:00 +15°C° 0 mm 4 mps 729 mmHg 36%
    21:00 +14°C° 0 mm 3 mps 729 mmHg 40%
    22:00 +14°C° 0 mm 3 mps 729 mmHg 44%
    23:00 +13°C° 0 mm 3 mps 729 mmHg 48%

    Day after tomorrow, 23 September, Monday

    Time Temperature Precipitation Wind Pressure Humidity
    00:00 +12°C° 0 mm 3 mps 729 mmHg 51%
    01:00 +12°C° 0 mm 3 mps 728 mmHg 54%
    02:00 +11°C° 0 mm 3 mps 728 mmHg 57%
    03:00 +12°C° 0 mm 2 mps 728 mmHg 61%
    04:00 +10°C° 0 mm 2 mps 728 mmHg 64%
    05:00 +10°C° 0 mm 2 mps 727 mmHg 68%
    06:00 +12°C° 0 mm 2 mps 728 mmHg 66%
    07:00 +12°C° 0 mm 3 mps 728 mmHg 64%
    08:00 +14°C° 0 mm 3 mps 728 mmHg 61%
    09:00 +16°C° 0 mm 3 mps 728 mmHg 54%
    10:00 +18°C° 0 mm 3 mps 728 mmHg 46%
    11:00 +20°C° 0 mm 3 mps 728 mmHg 39%
    12:00 +21°C° 0 mm 3 mps 728 mmHg 36%
    13:00 +24°C° 0 mm 3 mps 727 mmHg 32%
    14:00 +25°C° 0 mm 3 mps 727 mmHg 29%
    15:00 +25°C° 0 mm 3 mps 727 mmHg 28%
    16:00 +24°C° 0 mm 3 mps 726 mmHg 28%
    17:00 +24°C° 0 mm 3 mps 726 mmHg 27%
    18:00 +21°C° 0 mm 2 mps 727 mmHg 30%
    19:00 +19°C° 0 mm 2 mps 727 mmHg 33%
    20:00 +18°C° 0 mm 1 mps 728 mmHg 35%
    21:00 +18°C° 0 mm 1 mps 728 mmHg 38%
    22:00 +16°C° 0 mm 1 mps 729 mmHg 40%
    23:00 +15°C° 0 mm 1 mps 729 mmHg 43%

    24 September, Tuesday

    Time Temperature Precipitation Wind Pressure Humidity
    00:00 +14°C° 0 mm 1 mps 729 mmHg 45%
    01:00 +14°C° 0 mm 1 mps 729 mmHg 48%
    02:00 +13°C° 0 mm 1 mps 729 mmHg 51%
    03:00 +13°C° 0 mm 1 mps 729 mmHg 53%
    04:00 +13°C° 0 mm 1 mps 729 mmHg 54%
    05:00 +13°C° 0 mm 1 mps 729 mmHg 55%
    06:00 +15°C° 0 mm 1 mps 730 mmHg 49%
    07:00 +18°C° 0 mm 1 mps 730 mmHg 44%
    08:00 +19°C° 0 mm 1 mps 731 mmHg 38%
    09:00 +21°C° 0 mm 2 mps 731 mmHg 34%
    10:00 +24°C° 0 mm 2 mps 731 mmHg 29%
    11:00 +26°C° 0 mm 2 mps 731 mmHg 25%
    12:00 +27°C° 0 mm 2 mps 731 mmHg 23%
    13:00 +28°C° 0 mm 3 mps 730 mmHg 22%
    14:00 +28°C° 0 mm 3 mps 730 mmHg 20%
    15:00 +28°C° 0 mm 3 mps 729 mmHg 20%
    16:00 +28°C° 0 mm 3 mps 729 mmHg 20%
    17:00 +28°C° 0 mm 3 mps 729 mmHg 21%
    18:00 +25°C° 0 mm 3 mps 729 mmHg 28%
    19:00 +21°C° 0 mm 2 mps 729 mmHg 35%
    20:00 +19°C° 0 mm 2 mps 729 mmHg 42%
    21:00 +18°C° 0 mm 2 mps 729 mmHg 43%
    22:00 +19°C° 0 mm 1 mps 730 mmHg 45%
    23:00 +18°C° 0 mm 1 mps 730 mmHg 46%

    25 September, Wednesday

    Time Temperature Precipitation Wind Pressure Humidity
    00:00 +18°C° 0 mm 1 mps 730 mmHg 47%
    01:00 +16°C° 0 mm 1 mps 730 mmHg 48%
    02:00 +16°C° 0 mm 1 mps 730 mmHg 48%
    03:00 +16°C° 0 mm 1 mps 730 mmHg 48%
    04:00 +15°C° 0 mm 1 mps 729 mmHg 48%
    05:00 +15°C° 0 mm 1 mps 729 mmHg 47%
    06:00 +18°C° 0 mm 1 mps 730 mmHg 43%
    07:00 +20°C° 0 mm 1 mps 730 mmHg 38%
    08:00 +21°C° 0 mm 1 mps 730 mmHg 33%
    09:00 +23°C° 0 mm 2 mps 730 mmHg 30%
    10:00 +26°C° 0 mm 2 mps 730 mmHg 26%
    11:00 +28°C° 0 mm 3 mps 730 mmHg 22%
    12:00 +29°C° 0 mm 3 mps 730 mmHg 20%
    13:00 +30°C° 0 mm 4 mps 729 mmHg 19%
    14:00 +32°C° 0 mm 4 mps 728 mmHg 17%
    15:00 +30°C° 0 mm 4 mps 728 mmHg 18%
    16:00 +29°C° 0 mm 5 mps 727 mmHg 19%
    17:00 +29°C° 0 mm 5 mps 727 mmHg 20%
    18:00 +26°C° 0 mm 4 mps 727 mmHg 26%
    19:00 +22°C° 0 mm 4 mps 727 mmHg 31%
    20:00 +19°C° 0 mm 3 mps 727 mmHg 36%
    21:00 +18°C° 0 mm 3 mps 727 mmHg 38%
    22:00 +18°C° 0 mm 3 mps 727 mmHg 39%
    23:00 +17°C° 0 mm 3 mps 727 mmHg 40%

    26 September, Thursday

    Time Temperature Precipitation Wind Pressure Humidity
    00:00 +17°C° 0 mm 3 mps 727 mmHg 40%
    01:00 +16°C° 0 mm 3 mps 727 mmHg 40%
    02:00 +16°C° 0 mm 3 mps 727 mmHg 41%
    03:00 +14°C° 0 mm 3 mps 727 mmHg 43%
    04:00 +15°C° 0 mm 2 mps 726 mmHg 45%
    05:00 +14°C° 0 mm 2 mps 726 mmHg 47%
    06:00 +16°C° 0 mm 3 mps 726 mmHg 44%
    07:00 +18°C° 0 mm 4 mps 726 mmHg 41%
    08:00 +19°C° 0 mm 5 mps 727 mmHg 38%
    09:00 +21°C° 0 mm 5 mps 727 mmHg 35%
    10:00 +24°C° 0 mm 6 mps 727 mmHg 31%
    11:00 +27°C° 0 mm 7 mps 726 mmHg 28%
    12:00 +28°C° 0 mm 7 mps 726 mmHg 27%
    13:00 +28°C° 0 mm 7 mps 725 mmHg 25%
    14:00 +29°C° 0 mm 7 mps 724 mmHg 24%
    15:00 +29°C° 0 mm 7 mps 724 mmHg 25%
    16:00 +28°C° 0 mm 7 mps 723 mmHg 25%
    17:00 +28°C° 0 mm 6 mps 723 mmHg 25%
    18:00 +26°C° 0 mm 6 mps 723 mmHg 30%
    19:00 +22°C° 0 mm 5 mps 723 mmHg 36%
    20:00 +20°C° 0 mm 4 mps 723 mmHg 41%
    21:00 +19°C° 0 mm 4 mps 723 mmHg 44%
    22:00 +18°C° 0 mm 3 mps 723 mmHg 47%
    23:00 +17°C° 0 mm 2 mps 723 mmHg 50%
    Show more